Project,Study,Ord_Occ,Event_Num,Cast_ID,Date_Time_UTC,Date_Time_PST,Lat_Dec,Lon_Dec,Sta_ID,Line,Sta,Depth,Pressure,PrQ,Temp1,Temp1Q,Temp2,Temp2Q,TempAve,Salt1,Salt1Q,Salt1_Corr,Salt2,Salt2Q,Salt2_Corr,SaltAve_Corr,Ox1,Ox1Q,Ox1_CruiseCorr,Ox1_StaCorr,Ox2,Ox2Q,Ox2_CruiseCorr,Ox2_StaCorr,OxAve_StaCorr,Ox1uM,Ox1uM_CruiseCorr,Ox1uM_StaCorr,Ox2uM,Ox2uM_CruiseCorr,Ox2uM_StaCorr,OxAveuM_StaCorr,FluorV,FluorQ,EstChl_CruiseCorr,EstChl_StaCorr,ISUSV,ISUSQ,EstNO3_CruiseCorr,EstNO3_StaCorr,SigThetaTS1,SigThetaTS1Q,SigThetaTS2,SigThetaTS2Q,BAT,XMiss,TransQ,pH,pHQ,SPAR,SPARQ,PAR,PARQ,PoT1,PoT2,DynHt,SVA,OxSat1,OxSat2,BTL_Depth,BTL_Temp,SaltB,OxB,OxBuM,Chl-a,Phaeo,NO3,NO2,NH4,PO4,SIL
CalCOFI,2101RL,063,,2101_063u,31-Jan-2021 17:38:05,31-Jan-2021 09:38:05,33.49215,-122.53156,080.0 080.0,080.0,080.0,517.000,521.349,,5.4590,,5.4592,,5.4591,34.2183,,34.2241,34.2162,,34.2182,34.2212,0.3823,,0.4000,0.4344,0.3849,,0.4068,0.4449,0.4397,16.629,17.6674,33.3055,16.739,18.9441,33.3885,33.3470,0.0357,,,, ,, , ,27.0068,,27.0051,,0.7242,83.4390,,,,1.1140E+03,,1.0000E-12,,5.4157,5.4160,0.8837,110.772,5.436,5.472,,,,,,,,,,,,
CalCOFI,2101RL,063,,2101_063u,31-Jan-2021 17:38:19,31-Jan-2021 09:38:19,33.49221,-122.53152,080.0 080.0,080.0,080.0,516.000,520.339,,5.4693,,5.4697,,5.4695,34.2166,,34.2224,34.2147,,34.2167,34.2196,0.3823,,0.4000,0.4344,0.3829,,0.4047,0.4428,0.4386,16.622,17.6601,33.3000,16.652,18.9363,33.3181,33.3091,0.0318,,,, ,, , ,27.0042,,27.0026,,0.7252,83.4195,,,,1.1327E+03,,1.0000E-12,,5.4261,5.4265,0.8837,111.016,5.436,5.446,516,,34.2180,0.440,19.17,,,,,,,
CalCOFI,2101RL,063,,2101_063u,31-Jan-2021 17:38:20,31-Jan-2021 09:38:20,33.49220,-122.53152,080.0 080.0,080.0,080.0,515.000,519.329,,5.4721,,5.4730,,5.4726,34.2161,,34.2219,34.2139,,34.2159,34.2189,0.3834,,0.4012,0.4355,0.3847,,0.4066,0.4447,0.4401,16.674,17.7145,33.3411,16.726,18.9942,33.3779,33.3595,0.0322,,,, ,, , ,27.0035,,27.0016,,0.7253,83.4164,,,,1.1332E+03,,1.0000E-12,,5.4290,5.4299,0.8837,111.075,5.453,5.470,,,,,,,,,,,,
CalCOFI,2101RL,063,,2101_063u,31-Jan-2021 17:38:23,31-Jan-2021 09:38:23,33.49222,-122.53152,080.0 080.0,080.0,080.0,514.000,518.320,,5.4738,,5.4746,,5.4742,34.2153,,34.2211,34.2132,,34.2152,34.2182,0.3886,,0.4066,0.4410,0.3867,,0.4087,0.4468,0.4439,16.898,17.9490,33.5182,16.815,19.2433,33.4500,33.4841,0.0329,,,, ,, , ,27.0026,,27.0009,,0.7250,83.4237,,,,1.1150E+03,,1.0000E-12,,5.4308,5.4316,0.8837,111.146,5.527,5.499,,,,,,,,,,,,
CalCOFI,2101RL,063,,2101_063u,31-Jan-2021 17:38:25,31-Jan-2021 09:38:25,33.49222,-122.53152,080.0 080.0,080.0,080.0,513.000,517.310,,5.4743,,5.4745,,5.4744,34.2147,,34.2205,34.2132,,34.2152,34.2179,0.3896,,0.4077,0.4420,0.3920,,0.4143,0.4525,0.4473,16.943,17.9961,33.5538,17.044,19.2933,33.6353,33.5946,0.0322,,,, ,, , ,27.0021,,27.0008,,0.7250,83.4227,,,,1.1143E+03,,1.0000E-12,,5.4313,5.4315,0.8837,111.179,5.541,5.574,,,,,,,,,,,,
CalCOFI,2101RL,063,,2101_063u,31-Jan-2021 17:38:26,31-Jan-2021 09:38:26,33.49222,-122.53152,080.0 080.0,080.0,080.0,512.000,516.300,,5.4766,,5.4767,,5.4767,34.2134,,34.2192,34.2119,,34.2139,34.2166,0.3944,,0.4127,0.4470,0.3895,,0.4117,0.4498,0.4484,17.151,18.2139,33.7182,16.936,19.5246,33.5479,33.6331,0.0326,,,, ,, , ,27.0007,,26.9995,,0.7250,83.4222,,,,1.1195E+03,,1.0000E-12,,5.4338,5.4339,0.8837,111.297,5.610,5.539,,,,,,,,,,,,
CalCOFI,2101RL,063,,2101_063u,31-Jan-2021 17:38:27,31-Jan-2021 09:38:27,33.49222,-122.53152,080.0 080.0,080.0,080.0,511.000,515.291,,5.4801,,5.4783,,5.4792,34.2129,,34.2187,34.2115,,34.2135,34.2161,0.3934,,0.4116,0.4459,0.3911,,0.4134,0.4515,0.4487,17.107,18.1678,33.6834,17.007,19.4757,33.6054,33.6444,0.0322,,,, ,, , ,26.9999,,26.9990,,0.7258,83.4061,,,,1.1214E+03,,1.0000E-12,,5.4373,5.4356,0.8837,111.366,5.596,5.563,,,,,,,,,,,,
CalCOFI,2101RL,063,,2101_063u,31-Jan-2021 17:38:29,31-Jan-2021 09:38:29,33.49221,-122.53152,080.0 080.0,080.0,080.0,510.000,514.281,,5.4834,,5.4799,,5.4817,34.2124,,34.2182,34.2113,,34.2133,34.2158,0.3992,,0.4177,0.4520,0.3982,,0.4209,0.4590,0.4555,17.361,18.4337,33.8842,17.315,19.7581,33.8546,33.8694,0.0329,,,, ,, , ,26.9991,,26.9987,,0.7254,83.4140,,,,1.1201E+03,,1.0000E-12,,5.4407,5.4372,0.8837,111.431,5.679,5.664,,,,,,,,,,,,
CalCOFI,2101RL,063,,2101_063u,31-Jan-2021 17:38:30,31-Jan-2021 09:38:30,33.49220,-122.53152,080.0 080.0,080.0,080.0,509.000,513.271,,5.4880,,5.4870,,5.4875,34.2114,,34.2172,34.2098,,34.2118,34.2145,0.4010,,0.4196,0.4538,0.4009,,0.4238,0.4619,0.4579,17.438,18.5143,33.9451,17.435,19.8437,33.9517,33.9484,0.0319,,,, ,, , ,26.9978,,26.9966,,0.7255,83.4120,,,,1.1177E+03,,1.0000E-12,,5.4454,5.4444,0.8837,111.551,5.705,5.704,,,,,,,,,,,,
CalCOFI,2101RL,063,,2101_063u,31-Jan-2021 17:38:31,31-Jan-2021 09:38:31,33.49220,-122.53152,080.0 080.0,080.0,080.0,508.000,512.262,,5.4916,,5.4904,,5.4910,34.2105,,34.2163,34.2091,,34.2111,34.2137,0.3992,,0.4177,0.4520,0.3938,,0.4163,0.4544,0.4532,17.360,18.4326,33.8834,17.123,19.7570,33.6992,33.7913,0.0326,,,, ,, , ,26.9966,,26.9956,,0.7254,83.4152,,,,1.1159E+03,,1.0000E-12,,5.4490,5.4478,0.8837,111.650,5.680,5.602,,,,,,,,,,,,
CalCOFI,2101RL,063,,2101_063u,31-Jan-2021 17:38:32,31-Jan-2021 09:38:32,33.49220,-122.53152,080.0 080.0,080.0,080.0,507.000,511.252,,5.4924,,5.4928,,5.4926,34.2105,,34.2163,34.2086,,34.2106,34.2135,0.4054,,0.4242,0.4584,0.3949,,0.4174,0.4555,0.4570,17.628,18.7132,34.0953,17.174,20.0550,33.7405,33.9179,0.0328,,,, ,, , ,26.9965,,26.9949,,0.7252,83.4187,,,,1.1100E+03,,1.0000E-12,,5.4499,5.4503,0.8837,111.647,5.768,5.619,,,,,,,,,,,,
CalCOFI,2101RL,063,,2101_063u,31-Jan-2021 17:38:34,31-Jan-2021 09:38:34,33.49220,-122.53152,080.0 080.0,080.0,080.0,506.000,510.243,,5.4977,,5.4954,,5.4966,34.2092,,34.2150,34.2082,,34.2102,34.2126,0.4087,,0.4276,0.4619,0.4023,,0.4253,0.4634,0.4627,17.773,18.8650,34.2099,17.495,20.2163,34.0003,34.1051,0.0324,,,, ,, , ,26.9949,,26.9943,,0.7257,83.4075,,,,1.1092E+03,,1.0000E-12,,5.4553,5.4530,0.8837,111.799,5.816,5.725,,,,,,,,,,,,
CalCOFI,2101RL,063,,2101_063u,31-Jan-2021 17:38:35,31-Jan-2021 09:38:35,33.49220,-122.53152,080.0 080.0,080.0,080.0,505.000,509.233,,5.5060,,5.5064,,5.5062,34.2084,,34.2142,34.2063,,34.2083,34.2113,0.4154,,0.4347,0.4688,0.4096,,0.4330,0.4712,0.4700,18.062,19.1675,34.4384,17.812,20.5376,34.2568,34.3476,0.0325,,,, ,, , ,26.9932,,26.9915,,0.7247,83.4299,,,,1.1128E+03,,1.0000E-12,,5.4636,5.4641,0.8837,111.954,5.912,5.830,,,,,,,,,,,,
CalCOFI,2101RL,063,,2101_063u,31-Jan-2021 17:38:35,31-Jan-2021 09:38:35,33.49220,-122.53152,080.0 080.0,080.0,080.0,504.000,508.223,,5.5083,,5.5061,,5.5072,34.2071,,34.2129,34.2061,,34.2081,34.2105,0.4185,,0.4379,0.4721,0.4095,,0.4329,0.4710,0.4716,18.201,19.3130,34.5483,17.806,20.6922,34.2520,34.4002,0.0322,,,, ,, , ,26.9919,,26.9914,,0.7247,83.4294,,,,1.1156E+03,,1.0000E-12,,5.4660,5.4639,0.8837,112.069,5.957,5.828,,,,,,,,,,,,
CalCOFI,2101RL,063,,2101_063u,31-Jan-2021 17:38:36,31-Jan-2021 09:38:36,33.49220,-122.53152,080.0 080.0,080.0,080.0,503.000,507.214,,5.5135,,5.5113,,5.5124,34.2055,,34.2113,34.2043,,34.2063,34.2088,0.4214,,0.4409,0.4751,0.4142,,0.4379,0.4760,0.4756,18.326,19.4439,34.6471,18.012,20.8312,34.4187,34.5329,0.0314,,,, ,, , ,26.9900,,26.9893,,0.7251,83.4212,,,,1.1153E+03,,1.0000E-12,,5.4713,5.4691,0.8837,112.240,5.999,5.895,,,,,,,,,,,,
CalCOFI,2101RL,063,,2101_063u,31-Jan-2021 17:38:37,31-Jan-2021 09:38:37,33.49220,-122.53152,080.0 080.0,080.0,080.0,502.000,506.204,,5.5206,,5.5187,,5.5197,34.2043,,34.2101,34.2029,,34.2049,34.2075,0.4227,,0.4423,0.4764,0.4127,,0.4363,0.4744,0.4754,18.382,19.5025,34.6914,17.949,20.8935,34.3677,34.5296,0.0334,,,, ,, , ,26.9882,,26.9873,,0.7256,83.4095,,,,1.1132E+03,,1.0000E-12,,5.4785,5.4766,0.8837,112.405,6.018,5.876,,,,,,,,,,,,
CalCOFI,2101RL,063,,2101_063u,31-Jan-2021 17:38:38,31-Jan-2021 09:38:38,33.49220,-122.53152,080.0 080.0,080.0,080.0,501.000,505.194,,5.5277,,5.5275,,5.5276,34.2033,,34.2091,34.2014,,34.2034,34.2063,0.4194,,0.4388,0.4730,0.4232,,0.4475,0.4856,0.4793,18.240,19.3538,34.5791,18.403,20.7356,34.7351,34.6571,0.0327,,,, ,, , ,26.9865,,26.9851,,0.7250,83.4238,,,,1.1086E+03,,1.0000E-12,,5.4856,5.4855,0.8837,112.556,5.972,6.026,,,,,,,,,,,,
CalCOFI,2101RL,063,,2101_063u,31-Jan-2021 17:38:39,31-Jan-2021 09:38:39,33.49218,-122.53152,080.0 080.0,080.0,080.0,500.000,504.185,,5.5318,,5.5285,,5.5302,34.2030,,34.2088,34.2016,,34.2036,34.2062,0.4237,,0.4433,0.4775,0.4133,,0.4370,0.4751,0.4763,18.425,19.5475,34.7254,17.972,20.9413,34.3863,34.5559,0.0323,,,, ,, , ,26.9858,,26.9850,,0.7247,83.4293,,,,1.1019E+03,,1.0000E-12,,5.4898,5.4865,0.8837,112.616,6.034,5.885,,,,,,,,,,,,
CalCOFI,2101RL,063,,2101_063u,31-Jan-2021 17:38:40,31-Jan-2021 09:38:40,33.49218,-122.53152,080.0 080.0,080.0,080.0,499.000,503.175,,5.5342,,5.5339,,5.5341,34.2028,,34.2086,34.2009,,34.2029,34.2058,0.4231,,0.4427,0.4768,0.4202,,0.4443,0.4824,0.4796,18.401,19.5224,34.7064,18.271,20.9146,34.6283,34.6674,0.0323,,,, ,, , ,26.9854,,26.9839,,0.7255,83.4128,,,,1.0953E+03,,1.0000E-12,,5.4923,5.4919,0.8837,112.648,6.026,5.984,,,,,,,,,,,,
CalCOFI,2101RL,063,,2101_063u,31-Jan-2021 17:38:42,31-Jan-2021 09:38:42,33.49219,-122.53152,080.0 080.0,080.0,080.0,498.000,502.166,,5.5397,,5.5408,,5.5403,34.2026,,34.2084,34.2008,,34.2028,34.2056,0.4254,,0.4451,0.4792,0.4242,,0.4485,0.4867,0.4830,18.501,19.6270,34.7854,18.448,21.0258,34.7715,34.7785,0.0324,,,, ,, , ,26.9845,,26.9830,,0.7254,83.4146,,,,1.0892E+03,,1.0000E-12,,5.4978,5.4989,0.8837,112.721,6.060,6.043,,,,,,,,,,,,
CalCOFI,2101RL,063,,2101_063u,31-Jan-2021 17:38:44,31-Jan-2021 09:38:44,33.49220,-122.53152,080.0 080.0,080.0,080.0,497.000,501.156,,5.5407,,5.5395,,5.5401,34.2024,,34.2082,34.2009,,34.2029,34.2056,0.4314,,0.4514,0.4855,0.4256,,0.4500,0.4881,0.4868,18.761,19.8992,34.9910,18.506,21.3149,34.8184,34.9047,0.0325,,,, ,, , ,26.9842,,26.9832,,0.7258,83.4064,,,,1.0951E+03,,1.0000E-12,,5.4989,5.4977,0.8837,112.739,6.145,6.061,,,,,,,,,,,,
CalCOFI,2101RL,063,,2101_063u,31-Jan-2021 17:38:45,31-Jan-2021 09:38:45,33.49220,-122.53151,080.0 080.0,080.0,080.0,496.000,500.146,,5.5658,,5.5575,,5.5617,34.2036,,34.2094,34.2013,,34.2033,34.2064,0.4281,,0.4479,0.4820,0.4273,,0.4518,0.4899,0.4860,18.617,19.7485,34.8771,18.580,21.1548,34.8783,34.8777,0.0332,,,, ,, , ,26.9821,,26.9813,,0.7250,83.4224,,,,1.0996E+03,,1.0000E-12,,5.5240,5.5157,0.8837,112.954,6.101,6.088,,,,,,,,,,,,
CalCOFI,2101RL,063,,2101_063u,31-Jan-2021 17:38:45,31-Jan-2021 09:38:45,33.49220,-122.53150,080.0 080.0,080.0,080.0,495.000,499.137,,5.5832,,5.5734,,5.5783,34.2034,,34.2092,34.2017,,34.2037,34.2065,0.4291,,0.4490,0.4831,0.4301,,0.4548,0.4929,0.4880,18.658,19.7914,34.9096,18.705,21.2004,34.9795,34.9446,0.0330,,,, ,, , ,26.9799,,26.9797,,0.7258,83.4062,,,,1.1023E+03,,1.0000E-12,,5.5414,5.5317,0.8837,113.172,6.118,6.131,,,,,,,,,,,,
CalCOFI,2101RL,063,,2101_063u,31-Jan-2021 17:38:46,31-Jan-2021 09:38:46,33.49220,-122.53150,080.0 080.0,080.0,080.0,494.000,498.127,,5.5856,,5.5814,,5.5835,34.2028,,34.2086,34.2015,,34.2035,34.2061,0.4347,,0.4549,0.4889,0.4241,,0.4484,0.4865,0.4877,18.902,20.0468,35.1025,18.443,21.4717,34.7675,34.9350,0.0326,,,, ,, , ,26.9791,,26.9786,,0.7254,83.4140,,,,1.1038E+03,,1.0000E-12,,5.5439,5.5397,0.8837,113.234,6.198,6.047,,,,,,,,,,,,
CalCOFI,2101RL,063,,2101_063u,31-Jan-2021 17:38:47,31-Jan-2021 09:38:47,33.49220,-122.53150,080.0 080.0,080.0,080.0,493.000,497.118,,5.5903,,5.5885,,5.5894,34.2022,,34.2080,34.2009,,34.2029,34.2055,0.4360,,0.4562,0.4903,0.4317,,0.4565,0.4946,0.4925,18.959,20.1065,35.1475,18.772,21.5351,35.0337,35.0906,0.0329,,,, ,, , ,26.9780,,26.9772,,0.7251,83.4211,,,,1.1047E+03,,1.0000E-12,,5.5487,5.5469,0.8837,113.328,6.217,6.156,,,,,,,,,,,,
CalCOFI,2101RL,063,,2101_063u,31-Jan-2021 17:38:48,31-Jan-2021 09:38:48,33.49219,-122.53150,080.0 080.0,080.0,080.0,492.000,496.108,,5.6006,,5.5959,,5.5983,34.2018,,34.2076,34.2002,,34.2022,34.2049,0.4436,,0.4642,0.4982,0.4296,,0.4543,0.4924,0.4953,19.291,20.4540,35.4100,18.681,21.9043,34.9601,35.1851,0.0324,,,, ,, , ,26.9765,,26.9757,,0.7258,83.4058,,,,1.1030E+03,,1.0000E-12,,5.5590,5.5543,0.8837,113.470,6.327,6.127,,,,,,,,,,,,
CalCOFI,2101RL,063,,2101_063u,31-Jan-2021 17:38:49,31-Jan-2021 09:38:49,33.49218,-122.53150,080.0 080.0,080.0,080.0,491.000,495.099,,5.6160,,5.6110,,5.6135,34.2019,,34.2077,34.2002,,34.2022,34.2050,0.4441,,0.4647,0.4987,0.4436,,0.4691,0.5072,0.5030,19.312,20.4760,35.4266,19.291,21.9277,35.4537,35.4402,0.0324,,,, ,, , ,26.9747,,26.9739,,0.7250,83.4232,,,,1.1015E+03,,1.0000E-12,,5.5744,5.5695,0.8837,113.650,6.337,6.329,,,,,,,,,,,,
CalCOFI,2101RL,063,,2101_063u,31-Jan-2021 17:38:50,31-Jan-2021 09:38:50,33.49218,-122.53150,080.0 080.0,080.0,080.0,490.000,494.089,,5.6334,,5.6286,,5.6310,34.2012,,34.2070,34.2003,,34.2023,34.2047,0.4459,,0.4666,0.5006,0.4422,,0.4677,0.5058,0.5032,19.390,20.5577,35.4882,19.228,22.0144,35.4027,35.4455,0.0331,,,, ,, , ,26.9720,,26.9719,,0.7257,83.4070,,,,1.0971E+03,,1.0000E-12,,5.5919,5.5871,0.8837,113.911,6.365,6.311,,,,,,,,,,,,
CalCOFI,2101RL,063,,2101_063u,31-Jan-2021 17:38:51,31-Jan-2021 09:38:51,33.49218,-122.53150,080.0 080.0,080.0,080.0,489.000,493.080,,5.6427,,5.6342,,5.6385,34.2002,,34.2060,34.1993,,34.2013,34.2037,0.4444,,0.4650,0.4990,0.4379,,0.4631,0.5012,0.5001,19.325,20.4896,35.4369,19.043,21.9421,35.2530,35.3450,0.0330,,,, ,, , ,26.9701,,26.9704,,0.7254,83.4154,,,,1.0915E+03,,1.0000E-12,,5.6012,5.5928,0.8837,114.085,6.345,6.251,,,,,,,,,,,,
CalCOFI,2101RL,063,,2101_063u,31-Jan-2021 17:38:52,31-Jan-2021 09:38:52,33.49216,-122.53148,080.0 080.0,080.0,080.0,488.000,492.070,,5.6445,,5.6390,,5.6418,34.1999,,34.2057,34.1989,,34.2009,34.2033,0.4495,,0.4703,0.5043,0.4474,,0.4732,0.5113,0.5078,19.547,20.7220,35.6124,19.455,22.1890,35.5864,35.5994,0.0324,,,, ,, , ,26.9696,,26.9694,,0.7254,83.4151,,,,1.0867E+03,,1.0000E-12,,5.6032,5.5976,0.8837,114.121,6.418,6.387,,,,,,,,,,,,
CalCOFI,2101RL,063,,2101_063u,31-Jan-2021 17:38:53,31-Jan-2021 09:38:53,33.49216,-122.53148,080.0 080.0,080.0,080.0,487.000,491.061,,5.6475,,5.6434,,5.6455,34.1997,,34.2055,34.1984,,34.2004,34.2030,0.4447,,0.4653,0.4993,0.4384,,0.4636,0.5017,0.5005,19.339,20.5043,35.4479,19.063,21.9577,35.2692,35.3586,0.0327,,,, ,, , ,26.9691,,26.9685,,0.7253,83.4167,,,,1.0863E+03,,1.0000E-12,,5.6062,5.6021,0.8837,114.162,6.350,6.259,,,,,,,,,,,,
CalCOFI,2101RL,063,,2101_063u,31-Jan-2021 17:38:54,31-Jan-2021 09:38:54,33.49216,-122.53148,080.0 080.0,080.0,080.0,486.000,490.051,,5.6484,,5.6476,,5.6480,34.1997,,34.2055,34.1979,,34.1999,34.2027,0.4508,,0.4717,0.5056,0.4437,,0.4693,0.5074,0.5065,19.605,20.7827,35.6582,19.295,22.2535,35.4570,35.5576,0.0319,,,, ,, , ,26.9690,,26.9676,,0.7255,83.4130,,,,1.0857E+03,,1.0000E-12,,5.6071,5.6064,0.8837,114.160,6.437,6.336,,,,,,,,,,,,
CalCOFI,2101RL,063,,2101_063u,31-Jan-2021 17:38:55,31-Jan-2021 09:38:55,33.49216,-122.53148,080.0 080.0,080.0,080.0,485.000,489.042,,5.6530,,5.6494,,5.6512,34.1995,,34.2053,34.1979,,34.1999,34.2026,0.4544,,0.4755,0.5094,0.4486,,0.4745,0.5126,0.5110,19.759,20.9439,35.7800,19.510,22.4247,35.6309,35.7055,0.0328,,,, ,, , ,26.9682,,26.9674,,0.7250,83.4220,,,,1.0841E+03,,1.0000E-12,,5.6118,5.6082,0.8837,114.219,6.489,6.406,,,,,,,,,,,,
CalCOFI,2101RL,063,,2101_063u,31-Jan-2021 17:38:56,31-Jan-2021 09:38:56,33.49216,-122.53148,080.0 080.0,080.0,080.0,484.000,488.032,,5.6554,,5.6540,,5.6547,34.1992,,34.2050,34.1976,,34.1996,34.2023,0.4554,,0.4765,0.5104,0.4439,,0.4695,0.5076,0.5090,19.805,20.9921,35.8163,19.304,22.4759,35.4642,35.6403,0.0330,,,, ,, , ,26.9677,,26.9666,,0.7258,83.4060,,,,1.0822E+03,,1.0000E-12,,5.6143,5.6129,0.8837,114.261,6.504,6.339,,,,,,,,,,,,
CalCOFI,2101RL,063,,2101_063u,31-Jan-2021 17:38:57,31-Jan-2021 09:38:57,33.49216,-122.53148,080.0 080.0,080.0,080.0,483.000,487.022,,5.6570,,5.6566,,5.6568,34.1983,,34.2041,34.1968,,34.1988,34.2015,0.4602,,0.4815,0.5154,0.4484,,0.4742,0.5123,0.5139,20.014,21.2109,35.9815,19.500,22.7083,35.6229,35.8022,0.0331,,,, ,, , ,26.9668,,26.9656,,0.7258,83.4059,,,,1.0807E+03,,1.0000E-12,,5.6160,5.6157,0.8837,114.336,6.573,6.404,,,,,,,,,,,,
CalCOFI,2101RL,063,,2101_063u,31-Jan-2021 17:38:57,31-Jan-2021 09:38:57,33.49216,-122.53148,080.0 080.0,080.0,080.0,482.000,486.013,,5.6595,,5.6589,,5.6592,34.1967,,34.2025,34.1953,,34.1973,34.1999,0.4606,,0.4820,0.5158,0.4516,,0.4776,0.5157,0.5158,20.032,21.2297,35.9958,19.639,22.7283,35.7353,35.8656,0.0313,,,, ,, , ,26.9652,,26.9642,,0.7258,83.4059,,,,1.0807E+03,,1.0000E-12,,5.6186,5.6180,0.8837,114.477,6.579,6.450,,,,,,,,,,,,
CalCOFI,2101RL,063,,2101_063u,31-Jan-2021 17:38:58,31-Jan-2021 09:38:58,33.49216,-122.53147,080.0 080.0,080.0,080.0,481.000,485.003,,5.6658,,5.6636,,5.6647,34.1958,,34.2016,34.1942,,34.1962,34.1989,0.4623,,0.4837,0.5176,0.4562,,0.4825,0.5206,0.5191,20.102,21.3030,36.0511,19.841,22.8061,35.8988,35.9750,0.0322,,,, ,, , ,26.9637,,26.9627,,0.7254,83.4134,,,,1.0796E+03,,1.0000E-12,,5.6250,5.6228,0.8837,114.611,6.603,6.517,,,,,,,,,,,,
CalCOFI,2101RL,063,,2101_063u,31-Jan-2021 17:38:59,31-Jan-2021 09:38:59,33.49216,-122.53146,080.0 080.0,080.0,080.0,480.000,483.994,,5.6747,,5.6688,,5.6718,34.1949,,34.2007,34.1942,,34.1962,34.1985,0.4619,,0.4833,0.5172,0.4591,,0.4856,0.5237,0.5205,20.088,21.2883,36.0400,19.965,22.7906,35.9992,36.0196,0.0331,,,, ,, , ,26.9619,,26.9621,,0.7255,83.4124,,,,1.0789E+03,,1.0000E-12,,5.6340,5.6280,0.8837,114.777,6.600,6.559,,,,,,,,,,,,
CalCOFI,2101RL,063,,2101_063u,31-Jan-2021 17:39:01,31-Jan-2021 09:39:01,33.49217,-122.53147,080.0 080.0,080.0,080.0,479.000,482.984,,5.6734,,5.6930,,5.6832,34.1967,,34.2025,34.1945,,34.1965,34.1995,0.4660,,0.4876,0.5215,0.4577,,0.4841,0.5222,0.5219,20.266,21.4746,36.1808,19.906,22.9885,35.9514,36.0661,0.0330,,,, ,, , ,26.9635,,26.9593,,0.7255,83.4118,,,,1.0815E+03,,1.0000E-12,,5.6327,5.6523,0.8837,114.614,6.658,6.543,,,,,,,,,,,,
CalCOFI,2101RL,063,,2101_063u,31-Jan-2021 17:39:03,31-Jan-2021 09:39:03,33.49218,-122.53148,080.0 080.0,080.0,080.0,478.000,481.975,,5.7161,,5.7005,,5.7083,34.1968,,34.2026,34.1943,,34.1963,34.1995,0.4649,,0.4865,0.5203,0.4602,,0.4868,0.5249,0.5226,20.217,21.4234,36.1420,20.011,22.9340,36.0364,36.0892,0.0321,,,, ,, , ,26.9584,,26.9583,,0.7252,83.4195,,,,1.0860E+03,,1.0000E-12,,5.6754,5.6597,0.8837,115.132,6.649,6.579,,,,,,,,,,,,
CalCOFI,2101RL,063,,2101_063u,31-Jan-2021 17:39:04,31-Jan-2021 09:39:04,33.49218,-122.53148,080.0 080.0,080.0,080.0,477.000,480.965,,5.7396,,5.7077,,5.7237,34.1977,,34.2035,34.1948,,34.1968,34.2002,0.4678,,0.4895,0.5233,0.4570,,0.4834,0.5215,0.5224,20.345,21.5573,36.2432,19.876,23.0764,35.9271,36.0852,0.0327,,,, ,, , ,26.9562,,26.9578,,0.7248,83.4280,,,,1.0864E+03,,1.0000E-12,,5.6988,5.6671,0.8837,115.351,6.695,6.535,,,,,,,,,,,,
CalCOFI,2101RL,063,,2101_063u,31-Jan-2021 17:39:05,31-Jan-2021 09:39:05,33.49218,-122.53146,080.0 080.0,080.0,080.0,476.000,479.956,,5.7492,,5.7295,,5.7394,34.1986,,34.2044,34.1955,,34.1975,34.2010,0.4634,,0.4849,0.5188,0.4627,,0.4894,0.5275,0.5232,20.153,21.3564,36.0914,20.121,22.8629,36.1254,36.1084,0.0324,,,, ,, , ,26.9557,,26.9556,,0.7257,83.4089,,,,1.0864E+03,,1.0000E-12,,5.7085,5.6888,0.8837,115.395,6.633,6.619,,,,,,,,,,,,
CalCOFI,2101RL,063,,2101_063u,31-Jan-2021 17:39:06,31-Jan-2021 09:39:06,33.49218,-122.53146,080.0 080.0,080.0,080.0,475.000,478.946,,5.7593,,5.7372,,5.7483,34.1995,,34.2053,34.1964,,34.1984,34.2019,0.4612,,0.4826,0.5165,0.4598,,0.4864,0.5244,0.5205,20.055,21.2538,36.0140,19.995,22.7539,36.0234,36.0187,0.0335,,,, ,, , ,26.9552,,26.9554,,0.7247,83.4295,,,,1.0887E+03,,1.0000E-12,,5.7186,5.6966,0.8837,115.443,6.603,6.579,,,,,,,,,,,,
CalCOFI,2101RL,063,,2101_063u,31-Jan-2021 17:39:07,31-Jan-2021 09:39:07,33.49218,-122.53146,080.0 080.0,080.0,080.0,474.000,477.937,,5.7683,,5.7567,,5.7625,34.2000,,34.2058,34.1982,,34.2002,34.2030,0.4605,,0.4819,0.5157,0.4575,,0.4839,0.5220,0.5189,20.027,21.2245,35.9918,19.898,22.7227,35.9449,35.9684,0.0333,,,, ,, , ,26.9544,,26.9544,,0.7257,83.4085,,,,1.0917E+03,,1.0000E-12,,5.7277,5.7161,0.8837,115.511,6.594,6.550,,,,,,,,,,,,
CalCOFI,2101RL,063,,2101_063u,31-Jan-2021 17:39:07,31-Jan-2021 09:39:07,33.49218,-122.53146,080.0 080.0,080.0,080.0,473.000,476.928,,5.7753,,5.7743,,5.7748,34.2011,,34.2069,34.1991,,34.2011,34.2040,0.4682,,0.4899,0.5237,0.4550,,0.4813,0.5194,0.5216,20.363,21.5762,36.2574,19.785,23.0964,35.8535,36.0555,0.0323,,,, ,, , ,26.9544,,26.9530,,0.7258,83.4059,,,,1.0953E+03,,1.0000E-12,,5.7348,5.7338,0.8837,115.505,6.706,6.516,,,,,,,,,,,,
CalCOFI,2101RL,063,,2101_063u,31-Jan-2021 17:39:08,31-Jan-2021 09:39:08,33.49219,-122.53145,080.0 080.0,080.0,080.0,472.000,475.918,,5.7893,,5.7889,,5.7891,34.2020,,34.2078,34.2005,,34.2025,34.2052,0.4668,,0.4885,0.5223,0.4616,,0.4883,0.5264,0.5244,20.301,21.5113,36.2084,20.075,23.0274,36.0882,36.1483,0.0321,,,, ,, , ,26.9534,,26.9523,,0.7249,83.4250,,,,1.0985E+03,,1.0000E-12,,5.7488,5.7484,0.8837,115.601,6.688,6.614,,,,,,,,,,,,
CalCOFI,2101RL,063,,2101_063u,31-Jan-2021 17:39:09,31-Jan-2021 09:39:09,33.49220,-122.53144,080.0 080.0,080.0,080.0,471.000,474.909,,5.8017,,5.7985,,5.8001,34.2029,,34.2087,34.2009,,34.2029,34.2058,0.4689,,0.4907,0.5245,0.4658,,0.4927,0.5308,0.5277,20.391,21.6055,36.2796,20.257,23.1275,36.2355,36.2576,0.0319,,,, ,, , ,26.9526,,26.9515,,0.7257,83.4074,,,,1.1015E+03,,1.0000E-12,,5.7612,5.7581,0.8837,115.681,6.720,6.675,,,,,,,,,,,,
CalCOFI,2101RL,063,,2101_063u,31-Jan-2021 17:39:09,31-Jan-2021 09:39:09,33.49220,-122.53144,080.0 080.0,080.0,080.0,470.000,473.899,,5.8167,,5.8152,,5.8160,34.2031,,34.2089,34.2015,,34.2035,34.2062,0.4737,,0.4957,0.5295,0.4636,,0.4904,0.5285,0.5290,20.600,21.8243,36.4448,20.161,23.3599,36.1578,36.3013,0.0326,,,, ,, , ,26.9509,,26.9498,,0.7256,83.4111,,,,1.1029E+03,,1.0000E-12,,5.7763,5.7748,0.8837,115.840,6.791,6.646,,,,,,,,,,,,
CalCOFI,2101RL,063,,2101_063u,31-Jan-2021 17:39:10,31-Jan-2021 09:39:10,33.49220,-122.53144,080.0 080.0,080.0,080.0,469.000,472.890,,5.8216,,5.8210,,5.8213,34.2015,,34.2073,34.2006,,34.2026,34.2050,0.4717,,0.4936,0.5274,0.4625,,0.4892,0.5273,0.5274,20.514,21.7343,36.3768,20.112,23.2643,36.1181,36.2475,0.0338,,,, ,, , ,26.9490,,26.9484,,0.7248,83.4281,,,,1.1029E+03,,1.0000E-12,,5.7813,5.7806,0.8837,116.015,6.763,6.630,,,,,,,,,,,,
CalCOFI,2101RL,063,,2101_063u,31-Jan-2021 17:39:11,31-Jan-2021 09:39:11,33.49221,-122.53143,080.0 080.0,080.0,080.0,468.000,471.880,,5.8202,,5.8206,,5.8204,34.2000,,34.2058,34.1986,,34.2006,34.2032,0.4779,,0.5001,0.5338,0.4740,,0.5014,0.5395,0.5367,20.784,22.0169,36.5903,20.615,23.5645,36.5252,36.5578,0.0333,,,, ,, , ,26.9480,,26.9468,,0.7256,83.4104,,,,1.1001E+03,,1.0000E-12,,5.7799,5.7804,0.8837,116.095,6.852,6.796,,,,,,,,,,,,
CalCOFI,2101RL,063,,2101_063u,31-Jan-2021 17:39:13,31-Jan-2021 09:39:13,33.49222,-122.53142,080.0 080.0,080.0,080.0,467.000,470.871,,5.8131,,5.8116,,5.8124,34.1982,,34.2040,34.1947,,34.1967,34.2004,0.4882,,0.5109,0.5445,0.4828,,0.5108,0.5489,0.5467,21.229,22.4827,36.9421,20.996,24.0594,36.8335,36.8878,0.0325,,,, ,, , ,26.9475,,26.9448,,0.7248,83.4281,,,,1.0928E+03,,1.0000E-12,,5.7729,5.7714,0.8837,116.123,6.998,6.920,,,,,,,,,,,,
CalCOFI,2101RL,063,,2101_063u,31-Jan-2021 17:39:14,31-Jan-2021 09:39:14,33.49222,-122.53142,080.0 080.0,080.0,080.0,466.000,469.861,,5.8022,,5.8081,,5.8052,34.1932,,34.1990,34.1934,,34.1954,34.1972,0.4882,,0.5109,0.5445,0.4792,,0.5070,0.5450,0.5448,21.233,22.4869,36.9452,20.839,24.0638,36.7065,36.8259,0.0323,,,, ,, , ,26.9448,,26.9442,,0.7253,83.4172,,,,1.0906E+03,,1.0000E-12,,5.7622,5.7681,0.8837,116.343,6.997,6.868,,,,,,,,,,,,
CalCOFI,2101RL,063,,2101_063u,31-Jan-2021 17:39:15,31-Jan-2021 09:39:15,33.49222,-122.53140,080.0 080.0,080.0,080.0,465.000,468.852,,5.8344,,5.8136,,5.8240,34.1943,,34.2001,34.1910,,34.1930,34.1966,0.4823,,0.5047,0.5384,0.4842,,0.5123,0.5504,0.5444,20.974,22.2158,36.7405,21.056,23.7758,36.8821,36.8113,0.0321,,,, ,, , ,26.9417,,26.9417,,0.7247,83.4296,,,,1.0969E+03,,1.0000E-12,,5.7944,5.7736,0.8837,116.659,6.917,6.940,,,,,,,,,,,,